{"data":{"norad_id":52355,"intl_designator":"2022-045AA","name":"STARLINK-3877","alt_names":[],"object_type":"PAYLOAD","status":"ACTIVE","operator":null,"country":"US","launch_date":"2022-04-29","launch_site_code":"AFETR","launch_vehicle":null,"mission":null,"orbit_class":"UNKNOWN","rcs_meters":null,"size_class":null,"mass_kg":null,"dimensions":null,"purposes":["comms"],"wikipedia_slug":null,"has_3d_model":false,"image_url":null,"decayed_at":null,"tle_current":{"epoch":"2026-09-19T18:00:43.594848Z","epoch_age_seconds":124453,"freshness":"FRESH","line1":"1 52355U 22045AA  26262.75050457  .00005908  00000+0  18568-3 0  9996","line2":"2 52355  53.1602  39.3495 0001083  86.7060 273.4067 15.34430842245195","mean_motion":15.34430842,"eccentricity":0.0001083,"inclination_deg":53.1602,"raan_deg":39.3495,"arg_perigee_deg":86.706,"mean_anomaly_deg":273.4067,"bstar":0.00018568,"rev_number":24519,"period_min":93.845871745062,"perigee_km":461.87071974847,"apogee_km":463.35242588934,"semimajor_km":6840.7485728189,"source":"CELESTRAK","updated_at":"2026-09-20T09:00:40.025418Z"}}}